CZ-2C R/B, 40262

Orbit data source: Space-Track

CZ-2C R/B, 40262 is space debris in SSO originally from a launch on Sun, 28 Sep 2014 UTC launched from the Jiuquan Satellite Launch Center, China (JSC). Debris objects in space refer to the collection of defunct objects orbiting the Earth. Examples of debris include non-operational satellites, rocket bodies, and fragments generated from explosions, collisions, or faulty payload assembly.

Loading next visibility...
Identifier
40262, 2014-059B
Orbit
SSO
Country
Flag of CNCN / PRC
Related business
Manufacturer
CALT
Mission
Spacecraft
Bus & Motor
CZ-2 STAGE 2, Unknown motor
Mass
~3,800 kg wet, ~3,800 kg dry
Launch date (UTC)
2014-09-28 (11 years ago)
Launch vehicle
Unknown
Launch site
Jiuquan Satellite Launch Center, China (JSC)
Object type
Payload
Rocket body
Debris
Shape & HBR
Cyl, 4.2 m
Radar Cross Section
26.048 m², Large (>1 m²)

Expand to show TLE details & history
Last TLE update: 12 hours ago

TLE from 12 hours ago
0 CZ-2C R/B
1 40262U 14059B   25348.32466023  .00001192  00000-0  17839-3 0  9995
2 40262  98.3787 198.1871 0042730  54.6375 305.8815 14.76093036602343
Epoch: 2025-12-14T07:47Z
TLE epoch observation values (Epoch: 2025-12-14T07:47:30.643Z)
Latitude
-0.00003°
Longitude
-1.92978°
Altitude
627.185 km
Speed
7.554 km/s
True Right ascension
13h 12m 44s
True Declination
0° 00' 00"
Sunlit
Object was in daylight at epoch
Visualization orbit readout
Latitude
Unknown
Longitude
Unknown
Altitude
Unknown
Speed
Unknown
Apparent Right ascension
Unknown
Apparent Declination
Unknown
Sunlit
N/A
Visualization observer readout
Local Sidereal Time
18:15:53
Azimuth
Unknown
Elevation
Unknown
Doppler factor
Unknown
Orbital elements
Apogee altitude
668.735 km
Perigee altitude
608.769 km
Semi-major axis
7,016.889 km
Eccentricity
0.00427
Inclination
98.3787°
RAAN
198.1871°
Arg. of periapsis
54.6375°
True anomaly
305.48353°
Mean anomaly
305.8815°
Eccentric anomaly
305.68264°
Mean motion
3.69255 °/min
Orbital period
97.49 mins
BSTAR
0.00017839
Loading maneuver chart data...
Computing Atmospheric mass density...
Loading historical data...
Loading historical data...
Loading historical data...
Loading historical data...
Loading historical data...
Loading historical data...
Loading historical data...
Other satellites on launch #59 in the year 2014 (2014-09-28 UTC)

Documentation

Showing up to 5 results
|